Temperature
19 19 18 18 18 18 18 18 18 18 18 18 17 17 17 17 17 17 17 17 17 17 16 16 16 16 16 16 16 16 16 16 16 16 17 17 17 17 17 17 17 17 16
19 19 18 18 18 18 18 18 18 18 18 18 18 17 17 17 17 17 17 17 16 16 16 16 16 16 16 16 15 16 16 16 16 16 16 17 17 17 17 17 17 16 16
20 19 18 18 18 18 17 18 17 17 17 17 17 17 17 17 17 17 17 16 16 16 16 16 16 16 15 15 15 15 15 15 16 16 16 16 16 17 17 17 17 16 16
20 19 18 18 18 18 17 17 17 17 17 17 17 17 17 17 17 17 17 16 16 16 16 16 16 16 15 15 15 15 15 15 15 15 16 16 16 16 16 16 16 16 16
21 19 19 18 18 18 18 17 17 18 17 17 17 18 18 17 17 17 17 16 16 16 16 15 15 15 15 15 15 15 15 15 15 15 15 15 16 16 16 16 16 16 16
21 20 19 19 18 18 18 17 18 18 17 17 17 17 17 17 17 17 17 16 16 16 16 15 15 15 15 15 15 15 14 14 15 15 15 15 15 15 15 15 16 16 16
21 20 20 19 18 18 18 17 18 18 17 17 17 17 17 17 17 17 17 16 16 16 16 15 15 15 15 14 14 14 14 14 14 14 14 14 14 15 15 15 15 15 15
22 21 20 19 19 18 18 18 18 18 17 17 17 17 17 17 17 17 17 17 16 16 16 16 15 15 14 14 14 14 14 14 14 14 14 14 14 14 14 14 14 14 15
23 22 21 20 19 19 18 18 18 18 18 17 17 17 17 17 17 17 17 16 16 16 16 15 15 14 14 14 14 14 14 14 13 13 14 14 14 14 14 14 14 14 14
23 22 21 21 20 19 18 18 18 18 18 17 18 17 17 17 17 17 17 16 16 16 16 15 15 14 14 14 14 14 14 13 13 13 13 13 13 13 13 13 13 13 13
24 23 22 21 20 20 19 18 18 18 18 18 17 17 17 17 17 17 16 16 16 16 16 15 15 14 14 14 14 14 14 13 13 13 13 13 13 13 13 13 13 13 13
24 23 22 22 21 20 19 19 18 18 18 18 18 17 17 17 17 16 16 16 16 16 15 15 15 15 14 14 14 14 14 14 13 13 13 13 13 13 13 13 13 13 13
25 24 23 22 21 21 20 19 19 18 18 18 18 17 17 17 16 16 16 16 16 16 15 15 15 15 14 14 14 14 14 13 13 13 13 13 13 13 13 13 12 12 12
25 24 23 22 22 21 20 20 19 19 18 18 18 17 17 17 17 16 16 16 16 16 15 15 15 15 15 14 14 14 14 14 13 13 13 13 13 13 13 12 12 12 12
24 24 23 23 22 21 21 20 20 19 19 18 18 18 17 17 17 16 16 16 16 16 16 15 15 15 15 15 14 14 14 14 14 14 13 13 13 13 13 12 12 12 12
24 24 23 22 22 22 21 21 20 20 19 19 18 18 17 17 17 16 16 16 16 16 15 15 15 15 15 15 15 15 15 14 14 14 14 13 13 13 13 13 13 12 12
25 24 23 22 22 22 21 21 21 20 20 19 19 18 18 17 17 17 16 16 16 16 16 15 15 15 15 15 15 15 15 15 14 14 14 13 13 13 13 13 13 12 12
24 24 23 23 22 22 21 21 20 20 20 19 19 18 18 17 17 16 16 16 16 16 16 15 15 15 15 15 15 15 15 15 15 14 14 14 14 13 13 13 13 12 12
23 23 23 23 22 22 21 21 20 20 19 19 19 18 18 17 17 16 16 16 16 16 16 15 15 15 15 15 15 15 15 15 15 15 14 14 14 14 13 13 13 13 12
22 22 22 22 22 22 21 21 20 20 19 19 18 18 18 17 17 17 16 16 16 16 16 15 15 15 15 15 15 15 15 14 14 14 14 14 14 14 13 13 13 13 13
22 22 22 21 21 21 21 20 20 19 19 19 18 18 18 17 17 17 16 16 16 15 15 15 15 15 15 15 15 15 14 14 14 14 14 14 14 13 13 13 13 13 12
21 21 21 20 20 20 20 20 19 19 19 18 18 18 17 17 16 16 16 15 15 15 15 15 15 15 15 15 15 15 14 14 14 14 13 13 13 13 13 13 13 12 12
19 19 19 19 19 19 19 19 18 18 18 18 17 17 17 16 16 16 15 15 15 14 14 14 14 14 14 14 14 14 14 14 13 13 13 13 13 12 12 12 12 12 12
18 18 18 18 18 18 18 17 17 17 17 17 16 16 16 16 16 15 15 15 14 14 14 14 14 14 14 14 14 14 13 13 13 12 12 12 12 12 12 12 12 12 12
17 17 17 17 16 16 16 16 16 16 16 16 16 16 15 15 15 15 15 14 14 14 14 14 14 14 14 14 13 13 13 13 12 12 12 12 11 11 12 12 12 12 11
16 16 16 15 15 15 15 15 15 15 15 15 15 15 15 15 14 14 14 14 14 14 14 14 14 14 14 13 13 13 12 12 12 11 11 11 11 11 11 11 11 12 12
Wind_Speed
8 10 10 11 10 11 11 10 11 10 8 7 6 6 6 5 5 5 8 7 6 6 4 4 2 1 3 3 2 1 1 2 0 2 3 3 4 4 2 1 1 0 0
11 11 11 11 11 11 11 10 10 10 8 7 5 5 6 5 5 5 6 8 7 6 5 4 3 2 3 3 2 2 2 2 1 2 3 1 1 1 3 3 3 2 2
14 13 12 11 12 12 12 11 10 10 9 9 6 6 5 5 5 6 5 5 6 5 4 4 3 2 2 3 1 0 1 2 2 1 2 3 3 1 1 1 3 3 1
14 14 13 12 13 12 12 11 11 10 9 9 8 9 7 6 7 6 5 5 5 5 5 5 4 1 1 3 1 3 2 1 2 0 1 1 2 2 1 1 2 2 2
15 14 14 13 13 14 13 12 11 10 9 8 8 7 6 6 7 7 8 6 5 5 5 5 4 2 1 3 3 3 2 2 2 2 1 1 1 3 2 1 1 2 1
15 15 14 13 13 13 13 13 12 10 9 7 7 6 5 7 8 8 7 6 5 4 5 6 4 2 2 4 3 1 1 2 3 3 3 2 2 2 2 2 2 2 1
15 15 15 15 14 14 14 13 13 11 9 8 7 6 6 7 8 7 7 5 6 5 5 5 4 3 3 3 3 2 1 1 1 2 3 3 3 3 3 3 3 3 3
16 16 16 16 16 16 15 15 14 12 11 9 8 7 7 6 6 6 5 5 4 6 7 6 5 4 4 3 3 1 3 3 1 2 1 2 3 3 2 2 3 4 4
17 17 17 17 16 16 16 16 15 13 11 10 9 8 7 6 6 6 4 4 4 7 8 6 6 5 4 3 3 2 1 3 2 2 2 2 2 2 2 2 2 3 4
17 17 17 17 16 15 15 15 15 13 11 11 10 10 8 6 6 6 5 4 5 6 8 7 6 5 5 4 3 3 4 4 3 3 2 1 3 2 2 2 2 2 3
17 17 16 16 16 16 16 15 15 14 12 11 10 9 9 8 7 6 6 5 5 6 6 6 6 6 6 5 4 4 3 4 4 4 3 3 3 2 3 3 3 3 2
16 17 17 17 16 16 16 15 15 15 14 12 10 9 9 9 9 8 7 7 7 6 7 7 7 7 7 7 6 6 5 5 5 5 4 4 5 4 4 4 4 4 4
14 15 15 15 15 15 15 15 15 15 15 13 12 10 10 10 9 9 9 8 8 8 7 7 7 7 6 6 6 6 5 5 5 5 5 5 5 5 4 4 5 4 5
13 14 14 14 14 14 14 14 14 14 14 13 13 12 11 10 10 9 9 9 8 8 8 7 7 7 7 7 7 7 6 6 6 6 6 6 6 6 5 6 6 5 5
14 13 13 13 13 13 13 13 14 13 13 13 13 12 12 11 10 9 9 9 9 10 8 8 8 7 7 8 8 7 8 7 7 6 6 7 8 7 6 6 4 4 4
14 13 13 12 12 13 14 13 13 13 12 13 12 12 11 11 11 10 9 9 9 9 8 9 8 9 9 9 9 7 5 5 6 7 7 8 8 11 12 12 11 9 7
10 12 13 12 12 12 12 12 12 12 12 12 12 12 12 12 12 12 11 10 10 9 8 9 9 9 8 9 10 10 6 6 6 7 7 9 9 8 9 12 15 14 16
6 8 11 12 12 11 11 11 12 12 12 12 11 12 12 12 11 10 10 10 9 9 8 8 9 8 10 13 14 12 8 7 8 8 9 8 9 9 8 7 8 10 11
2 4 6 10 10 10 10 10 10 10 11 12 11 11 11 11 11 11 10 9 8 8 9 8 9 9 10 14 15 13 7 8 10 11 11 11 10 12 12 9 9 9 9
4 5 5 5 7 8 8 9 8 8 8 8 8 8 10 10 11 10 9 8 8 8 8 8 9 9 9 13 16 15 8 9 9 9 11 15 15 14 14 11 10 11 10
6 7 7 6 6 7 8 7 6 5 6 6 5 5 6 7 7 7 6 6 8 8 8 8 8 9 10 12 17 17 10 9 8 8 8 7 11 15 15 13 11 13 10
8 7 8 8 6 6 7 6 5 4 4 5 5 6 6 6 6 5 6 6 7 8 9 8 8 7 8 9 13 18 17 13 9 8 7 6 5 8 11 12 14 16 12
9 8 8 8 7 7 6 5 3 3 4 3 3 4 5 4 4 5 5 5 5 6 6 6 7 6 5 7 11 16 18 18 11 10 11 11 11 10 9 14 17 14 10
9 8 9 9 8 7 7 6 5 3 3 3 2 2 3 3 3 3 5 5 5 5 5 4 5 4 4 3 3 5 8 11 11 11 11 13 15 14 15 13 12 11 12
9 9 9 9 10 9 8 7 6 5 4 3 2 2 2 3 3 4 3 4 3 4 4 4 4 4 4 2 2 3 4 5 5 5 7 9 9 9 9 10 11 11 10
9 9 10 9 9 9 8 7 6 5 4 3 2 1 0 1 1 2 3 4 5 5 6 6 5 4 4 3 4 5 6 7 5 4 8 9 10 10 10 10 9 9 10
Wind_Direction
149 143 143 141 142 139 139 140 143 148 150 152 159 160 155 147 136 135 139 147 142 131 127 114 139 118 101 99 100 61 281 257 298 307 288 239 201 170 164 195 345 95 84
149 149 151 148 147 145 145 149 152 155 157 158 159 157 151 148 137 125 138 148 143 152 151 134 145 110 114 118 89 58 327 324 33 332 315 291 137 264 168 161 176 95 34
157 158 161 160 156 156 160 160 161 159 162 161 157 148 141 138 129 133 148 145 144 143 115 126 123 130 157 137 144 156 17 350 333 25 7 348 25 343 122 132 100 99 54
156 161 169 169 166 165 162 157 157 155 161 169 163 159 160 160 153 153 146 146 145 144 139 131 124 120 107 122 155 97 357 323 317 29 106 87 59 339 351 301 115 173 193
160 167 170 170 167 165 159 155 152 154 163 175 162 168 165 157 147 139 141 150 148 155 147 133 126 137 114 104 79 76 12 353 359 351 353 68 190 229 251 310 327 268 198
162 166 167 164 163 162 157 155 154 155 163 171 163 181 168 144 139 142 151 165 156 168 154 142 134 140 117 118 114 118 110 58 29 355 345 350 336 331 336 324 312 306 286
165 167 164 163 164 164 161 158 159 160 166 172 169 175 160 141 144 159 166 181 167 160 148 138 139 136 128 137 135 162 108 91 50 318 330 353 342 352 355 338 329 333 304
166 168 168 168 169 168 164 161 161 164 170 173 171 166 161 165 169 180 170 187 169 144 142 138 154 153 161 158 132 202 177 149 185 272 21 318 308 339 338 331 329 316 309
168 171 172 173 173 171 168 167 166 168 173 172 166 166 176 188 164 158 178 166 133 141 146 152 162 165 167 154 151 226 173 143 206 259 212 244 292 288 310 316 311 312 313
171 172 174 175 174 171 170 170 169 172 174 172 174 177 179 173 155 168 183 149 140 127 149 161 168 170 170 178 193 228 189 175 211 229 234 271 290 324 305 288 288 286 288
173 173 173 174 174 173 173 173 173 174 176 178 185 175 172 172 170 177 168 154 149 148 163 174 179 180 184 189 195 239 204 194 226 247 228 226 263 283 305 297 291 283 286
172 172 173 173 175 175 175 175 177 178 181 181 182 178 174 175 179 182 173 170 169 173 181 186 191 197 194 192 198 226 225 208 217 229 234 236 248 228 255 279 284 281 271
171 171 171 173 175 177 177 178 180 182 183 182 183 181 180 182 186 182 177 179 181 189 192 190 197 210 203 196 205 220 234 228 230 231 230 235 245 244 246 259 273 284 288
169 172 167 170 174 177 177 179 183 184 183 181 185 184 186 185 189 184 179 184 188 193 195 195 201 209 212 207 206 214 225 232 239 237 235 238 240 238 238 250 251 261 275
172 171 168 172 174 177 178 181 183 184 183 181 186 185 186 185 187 187 184 187 193 200 196 199 205 210 217 217 209 210 219 220 233 240 236 237 235 234 231 250 263 280 278
176 175 172 174 177 180 182 184 183 182 179 183 187 183 185 187 190 191 190 190 196 205 199 202 209 214 223 207 196 200 233 230 233 238 240 245 232 223 222 232 238 238 248
177 176 177 179 181 180 180 182 184 182 182 185 187 184 187 191 193 197 194 196 198 203 207 206 211 217 212 194 187 195 215 245 254 252 247 253 251 225 221 226 234 240 243
182 172 176 176 180 182 178 180 184 184 185 187 190 187 188 193 191 195 195 195 197 202 209 214 217 220 215 196 195 197 213 237 248 253 252 248 252 257 243 242 237 232 236
149 150 157 172 169 173 174 175 183 187 190 192 194 191 189 194 193 197 199 195 195 202 209 215 221 223 221 199 199 195 214 231 241 245 247 244 242 239 232 235 245 252 254
101 114 127 126 142 155 154 160 172 175 183 188 186 190 186 193 195 196 198 197 198 205 212 219 222 225 225 204 202 200 221 236 243 243 241 241 240 240 226 228 237 246 249
86 93 101 102 115 131 135 146 157 169 173 168 158 166 173 184 193 191 193 197 204 212 218 224 222 223 226 211 204 203 218 237 247 252 251 247 236 233 231 229 237 244 249
70 83 91 94 92 107 123 135 145 150 150 153 155 158 162 185 192 185 194 199 209 215 221 227 234 232 228 220 208 208 216 232 247 259 268 276 266 245 245 243 247 252 257
65 72 84 86 82 84 95 104 104 114 122 133 149 158 164 176 181 181 192 202 212 225 232 233 238 242 240 222 209 210 220 230 238 256 265 277 277 270 257 245 245 248 250
60 67 74 79 71 70 74 70 64 75 110 128 135 143 163 180 191 193 203 213 217 223 235 243 247 251 252 244 212 213 227 234 242 256 268 271 264 258 255 258 250 239 240
59 62 69 73 73 66 61 58 51 52 61 75 99 156 190 200 199 202 210 216 216 208 222 247 259 262 259 236 192 212 231 238 241 255 261 263 263 258 254 248 245 243 238
64 64 64 66 70 68 63 55 49 51 52 55 39 3 278 193 233 227 231 226 230 219 226 237 251 270 257 246 245 235 232 234 231 236 258 261 262 264 266 267 263 253 249
Height
1491 1493 1496 1499 1502 1507 1511 1515 1520 1525 1529 1533 1537 1540 1543 1546 1548 1550 1551 1553 1555 1556 1558 1560 1561 1562 1563 1564 1564 1565 1566 1567 1567 1567 1567 1567 1568 1568 1569 1570 1571 1571 1572
1490 1493 1497 1500 1503 1507 1510 1515 1520 1524 1529 1533 1537 1540 1543 1545 1547 1549 1551 1553 1554 1556 1558 1559 1560 1561 1562 1562 1563 1564 1564 1566 1566 1566 1566 1567 1568 1568 1569 1569 1570 1570 1570
1488 1492 1496 1500 1504 1507 1510 1515 1519 1524 1528 1532 1536 1539 1542 1545 1547 1548 1550 1552 1553 1555 1557 1558 1559 1560 1561 1561 1562 1562 1563 1564 1565 1566 1567 1567 1567 1567 1569 1569 1569 1569 1569
1487 1492 1496 1500 1503 1506 1510 1514 1518 1523 1528 1532 1535 1538 1541 1544 1546 1547 1549 1551 1552 1554 1555 1556 1557 1558 1559 1560 1561 1561 1562 1563 1564 1565 1566 1566 1567 1567 1568 1568 1568 1568 1568
1486 1491 1495 1499 1502 1506 1510 1514 1518 1522 1527 1531 1535 1538 1540 1543 1545 1547 1548 1550 1551 1553 1554 1555 1556 1557 1558 1558 1559 1560 1561 1562 1563 1564 1565 1565 1566 1566 1567 1567 1567 1567 1567
1485 1490 1494 1498 1502 1506 1510 1513 1517 1521 1526 1530 1533 1537 1539 1542 1543 1545 1547 1549 1550 1552 1553 1554 1554 1555 1556 1557 1557 1558 1560 1560 1561 1562 1563 1564 1565 1565 1566 1566 1566 1566 1566
1483 1488 1492 1496 1501 1505 1508 1512 1515 1520 1525 1529 1532 1535 1538 1540 1542 1544 1546 1548 1549 1550 1551 1553 1553 1554 1555 1555 1556 1558 1558 1559 1560 1561 1562 1562 1563 1564 1564 1565 1564 1564 1564
1481 1486 1491 1495 1499 1504 1507 1511 1514 1518 1523 1527 1530 1533 1536 1538 1541 1543 1545 1547 1549 1549 1550 1551 1552 1553 1554 1555 1555 1557 1558 1558 1558 1560 1560 1561 1562 1562 1563 1563 1563 1563 1562
1479 1484 1489 1493 1498 1502 1506 1510 1513 1517 1521 1525 1528 1531 1534 1537 1539 1541 1544 1545 1547 1548 1548 1549 1551 1552 1553 1554 1555 1556 1556 1557 1557 1558 1559 1559 1560 1561 1561 1561 1562 1562 1561
1476 1482 1487 1491 1496 1500 1505 1509 1512 1516 1520 1523 1526 1529 1532 1535 1537 1539 1542 1543 1545 1546 1547 1548 1549 1550 1551 1552 1553 1554 1555 1555 1556 1556 1557 1557 1558 1558 1559 1559 1559 1559 1559
1473 1479 1484 1489 1494 1499 1503 1507 1511 1514 1518 1521 1524 1528 1529 1532 1535 1537 1539 1541 1542 1544 1545 1546 1548 1549 1550 1551 1552 1553 1554 1554 1554 1555 1555 1555 1556 1556 1556 1556 1557 1557 1556
1471 1476 1482 1487 1492 1496 1501 1504 1508 1512 1515 1519 1522 1525 1527 1530 1532 1535 1537 1538 1540 1541 1543 1544 1546 1547 1548 1549 1550 1550 1552 1552 1553 1553 1553 1553 1554 1553 1553 1553 1553 1553 1553
1468 1473 1479 1484 1489 1494 1498 1502 1506 1509 1513 1516 1519 1522 1525 1527 1529 1532 1534 1536 1537 1539 1541 1542 1543 1545 1546 1547 1548 1548 1549 1550 1550 1550 1550 1550 1550 1550 1550 1550 1550 1550 1550
1465 1471 1476 1481 1486 1490 1495 1499 1503 1507 1510 1513 1516 1518 1521 1524 1527 1529 1531 1533 1535 1536 1538 1539 1541 1542 1543 1544 1545 1546 1546 1547 1547 1548 1547 1547 1547 1547 1547 1547 1546 1546 1545
1463 1467 1473 1477 1482 1487 1491 1495 1499 1503 1507 1510 1513 1515 1518 1521 1523 1526 1528 1530 1532 1533 1535 1536 1538 1539 1540 1541 1542 1543 1543 1544 1544 1544 1544 1544 1544 1543 1543 1543 1543 1542 1541
1459 1464 1469 1474 1478 1483 1487 1491 1495 1499 1503 1506 1509 1512 1515 1517 1519 1522 1524 1526 1528 1530 1532 1533 1534 1535 1537 1538 1539 1539 1540 1540 1540 1540 1540 1540 1539 1539 1539 1539 1538 1538 1536
1456 1460 1465 1469 1474 1478 1482 1487 1491 1495 1498 1501 1505 1508 1510 1513 1515 1517 1520 1521 1524 1526 1527 1529 1530 1531 1532 1534 1535 1535 1536 1536 1536 1536 1535 1535 1535 1535 1534 1533 1533 1532 1531
1454 1457 1461 1465 1470 1475 1479 1484 1488 1491 1494 1497 1500 1503 1505 1508 1510 1513 1515 1517 1519 1521 1523 1524 1526 1527 1528 1528 1529 1530 1531 1530 1530 1530 1530 1530 1530 1530 1529 1529 1528 1526 1525
1452 1455 1459 1463 1466 1470 1475 1479 1484 1487 1489 1492 1495 1498 1501 1504 1506 1508 1510 1512 1514 1516 1517 1519 1521 1521 1522 1523 1524 1525 1525 1525 1524 1525 1524 1524 1524 1524 1524 1523 1521 1520 1519
1452 1454 1457 1460 1463 1467 1471 1475 1479 1482 1484 1486 1489 1493 1496 1499 1501 1503 1505 1508 1509 1511 1512 1514 1515 1516 1517 1518 1519 1519 1519 1519 1518 1518 1519 1519 1518 1518 1517 1516 1515 1513 1512
1453 1454 1456 1458 1461 1465 1468 1472 1475 1478 1480 1484 1486 1490 1492 1495 1497 1498 1501 1503 1505 1506 1507 1509 1509 1510 1511 1511 1512 1513 1513 1513 1513 1512 1513 1513 1512 1511 1510 1510 1508 1507 1506
1454 1455 1456 1459 1461 1464 1467 1470 1473 1475 1478 1481 1484 1486 1488 1491 1493 1494 1496 1498 1500 1501 1502 1503 1504 1504 1505 1506 1506 1506 1507 1507 1507 1506 1506 1506 1505 1504 1503 1502 1501 1500 1499
1457 1457 1458 1460 1463 1465 1467 1470 1472 1475 1476 1479 1481 1483 1485 1487 1489 1491 1493 1494 1496 1497 1498 1498 1498 1499 1499 1499 1499 1500 1500 1500 1500 1499 1499 1499 1498 1496 1495 1494 1493 1492 1490
1460 1461 1461 1462 1465 1466 1468 1470 1472 1474 1475 1477 1479 1482 1483 1485 1487 1488 1489 1490 1491 1492 1493 1494 1494 1494 1494 1494 1494 1494 1494 1494 1493 1492 1492 1491 1489 1488 1487 1486 1484 1483 1481
1464 1464 1465 1466 1467 1468 1470 1471 1473 1474 1475 1477 1478 1480 1481 1482 1484 1485 1485 1486 1487 1488 1489 1489 1490 1490 1489 1489 1489 1489 1488 1488 1487 1485 1484 1483 1482 1480 1479 1477 1476 1475 1473
1467 1468 1468 1469 1470 1471 1472 1473 1474 1474 1475 1477 1478 1479 1481 1481 1482 1482 1483 1483 1484 1484 1484 1485 1485 1484 1484 1484 1484 1483 1482 1481 1480 1479 1476 1475 1474 1473 1472 1470 1469 1467 1465